Date String (YYYY-MM-DD hh:mm:ss) UTC,Instrument flags,Ambient pressure (hPa),Sample flow (lpm),Bypass flow (lpm),Sample temperature (°C),Ambient temperature (°C),ASC tube jacket temperature (°C),LED temperature (°C),Box temperature (°C),Sample RH (%),Span deviation,Mass concentration (μg/m³),Mass concentration (μg/m³),Mass concentration (μg/m³)
DateTimeUTC,F1_M11,P_M11,Q1_M11,Q2_M11,T1_M11,T2_M11,T3_M11,T4_M11,T5_M11,U1_M11,ZSPAN_M11,X0_M11,X2_M11,X1_M11
2022-02-14 15:00:00,,0827.5,4.99,0.00,22.6,21.9,00.0,31.5,24.4,08.6,0000.0,0008.75,0004.16,0003.62
2022-02-14 15:01:00,,0827.4,5.01,0.00,22.6,21.9,00.0,31.5,24.4,09.0,0000.0,0009.22,0004.15,0003.62
2022-02-14 15:02:00,,0827.4,4.99,0.00,22.6,21.9,00.0,31.5,24.4,08.9,0000.0,0008.50,0004.12,0003.60
2022-02-14 15:03:00,,0827.4,5.01,0.00,22.6,22.0,00.0,31.6,24.4,09.0,0000.0,0008.09,0004.11,0003.59
2022-02-14 15:04:00,,0827.3,4.99,0.00,22.6,22.0,00.0,31.6,24.4,09.4,0000.0,0007.82,0004.10,0003.60
2022-02-14 15:05:00,,0827.2,5.01,0.00,22.6,21.9,00.0,31.6,24.3,09.9,0000.0,0007.68,0004.11,0003.61
2022-02-14 15:06:00,,0827.1,5.00,0.00,22.6,21.9,00.0,31.6,24.3,10.2,0000.0,0007.59,0004.08,0003.61
2022-02-14 15:07:00,,0827.0,5.00,0.00,22.6,21.9,00.0,31.6,24.4,10.2,0000.0,0007.58,0004.08,0003.62
2022-02-14 15:08:00,,0827.3,5.00,0.00,22.6,21.9,00.0,31.6,24.4,10.0,0000.0,0007.55,0004.08,0003.64
2022-02-14 15:09:00,,0827.3,5.00,0.00,22.6,21.9,00.0,31.6,24.4,10.2,0000.0,0007.55,0004.11,0003.66
2022-02-14 15:10:00,,0827.4,5.00,0.00,22.6,21.9,00.0,31.6,24.4,10.3,0000.0,0007.44,0004.11,0003.69
2022-02-14 15:11:00,,0827.4,4.99,0.00,22.6,21.9,00.0,31.6,24.4,10.2,0000.0,0007.46,0004.14,0003.72
2022-02-14 15:12:00,,0827.4,5.00,0.00,22.6,21.9,00.0,31.6,24.4,10.1,0000.0,0006.73,0004.17,0003.75
2022-02-14 15:13:00,,0827.4,5.02,0.00,22.7,22.0,00.0,31.6,24.4,10.0,0000.0,0007.05,0004.21,0003.78
2022-02-14 15:14:00,,0827.4,4.99,0.00,22.7,22.0,00.0,31.6,24.5,09.1,0000.0,0007.42,0004.24,0003.80
2022-02-14 15:15:00,,0827.4,5.01,0.00,22.7,22.0,00.0,31.6,24.5,08.7,0000.0,0007.51,0004.24,0003.78
2022-02-14 15:16:00,,0827.4,5.01,0.00,22.7,22.0,00.0,31.6,24.5,08.3,0000.0,0007.47,0004.21,0003.75
2022-02-14 15:17:00,,0827.4,4.99,0.00,22.7,22.0,00.0,31.6,24.5,08.3,0000.0,0007.48,0004.20,0003.71
2022-02-14 15:18:00,,0827.6,5.01,0.00,22.7,22.1,00.0,31.6,24.6,09.0,0000.0,0007.39,0004.14,0003.68
2022-02-14 15:19:00,,0827.6,4.99,0.00,22.8,22.1,00.0,31.6,24.6,10.8,0000.0,0007.73,0004.14,0003.67
2022-02-14 15:20:00,,0827.7,5.02,0.00,22.8,22.1,00.0,31.6,24.6,10.7,0000.0,0007.99,0004.15,0003.68
2022-02-14 15:21:00,,0827.6,4.99,0.00,22.8,22.1,00.0,31.6,24.6,10.5,0000.0,0008.30,0004.17,0003.67
2022-02-14 15:22:00,,0827.5,5.00,0.00,22.8,22.1,00.0,31.7,24.6,10.6,0000.0,0008.81,0004.18,0003.66
2022-02-14 15:23:00,,0827.5,5.01,0.00,22.8,22.1,00.0,31.7,24.6,10.5,0000.0,0009.56,0004.18,0003.63
2022-02-14 15:24:00,,0827.4,5.01,0.00,22.8,22.1,00.0,31.7,24.6,10.1,0000.0,0009.41,0004.16,0003.62
2022-02-14 15:25:00,,0827.3,4.99,0.00,22.8,22.1,00.0,31.7,24.6,10.4,0000.0,0009.19,0004.16,0003.60
2022-02-14 15:26:00,,0827.4,5.00,0.00,22.9,22.1,00.0,31.7,24.7,10.5,0000.0,0009.33,0004.13,0003.60
2022-02-14 15:27:00,,0827.4,5.01,0.00,22.9,22.2,00.0,31.7,24.6,10.5,0000.0,0009.47,0004.14,0003.61
2022-02-14 15:28:00,,0827.4,4.99,0.00,22.9,22.2,00.0,31.7,24.7,10.8,0000.0,0009.52,0004.12,0003.63
2022-02-14 15:29:00,,0827.4,5.00,0.00,22.9,22.2,00.0,31.7,24.7,10.8,0000.0,0010.12,0004.14,0003.64
2022-02-14 15:30:00,,0827.4,5.00,0.00,22.9,22.2,00.0,31.8,24.7,10.4,0000.0,0010.02,0004.12,0003.63
2022-02-14 15:31:00,,0827.4,4.99,0.00,22.9,22.2,00.0,31.8,24.7,09.9,0000.0,0009.92,0004.06,0003.60
2022-02-14 15:32:00,,0827.4,5.02,0.00,22.9,22.2,00.0,31.8,24.7,10.0,0000.0,0010.31,0004.00,0003.57
2022-02-14 15:33:00,,0827.4,4.99,0.00,22.9,22.2,00.0,31.8,24.8,09.7,0000.0,0010.07,0003.96,0003.55
2022-02-14 15:34:00,,0827.4,5.00,0.00,23.0,22.2,00.0,31.8,24.8,09.5,0000.0,0009.16,0003.92,0003.53
2022-02-14 15:35:00,,0827.3,4.99,0.00,23.0,22.2,00.0,31.8,24.8,09.7,0000.0,0009.09,0003.90,0003.51
2022-02-14 15:36:00,,0827.3,5.00,0.00,23.0,22.2,00.0,31.8,24.8,09.4,0000.0,0009.00,0003.85,0003.48
2022-02-14 15:37:00,,0827.5,5.00,0.00,23.0,22.2,00.0,31.8,24.8,09.3,0000.0,0008.77,0003.83,0003.46
2022-02-14 15:38:00,,0827.7,4.99,0.00,23.0,22.2,00.0,31.9,24.8,09.6,0000.0,0008.56,0003.82,0003.44
2022-02-14 15:39:00,,0827.2,5.01,0.00,23.0,22.2,00.0,31.9,24.8,09.4,0000.0,0008.53,0003.83,0003.42
2022-02-14 15:40:00,,0827.5,5.00,0.00,23.0,22.2,00.0,31.9,24.8,09.6,0000.0,0008.14,0003.81,0003.41
2022-02-14 15:41:00,,0827.6,4.99,0.00,23.0,22.3,00.0,31.9,24.8,10.0,0000.0,0007.90,0003.79,0003.39
2022-02-14 15:42:00,,0827.6,4.99,0.00,23.1,22.3,00.0,31.9,24.8,09.9,0000.0,0007.72,0003.79,0003.37
2022-02-14 15:43:00,,0827.6,5.02,0.00,23.1,22.3,00.0,31.9,24.9,09.7,0000.0,0007.00,0003.75,0003.35
2022-02-14 15:44:00,,0827.8,4.98,0.00,23.1,22.3,00.0,31.9,24.9,08.8,0000.0,0007.79,0003.76,0003.35
2022-02-14 15:45:00,,0827.3,5.01,0.00,23.1,22.3,00.0,31.9,24.9,08.6,0000.0,0007.81,0003.76,0003.34
2022-02-14 15:46:00,,0827.1,4.99,0.00,23.1,22.3,00.0,32.0,24.9,09.1,0000.0,0007.73,0003.72,0003.32
2022-02-14 15:47:00,,0827.1,5.02,0.00,23.1,22.3,00.0,32.0,24.9,08.9,0000.0,0007.65,0003.70,0003.31
2022-02-14 15:48:00,,0827.1,4.99,0.00,23.1,22.3,00.0,32.0,24.9,08.8,0000.0,0007.62,0003.67,0003.29
2022-02-14 15:49:00,,0827.1,5.00,0.00,23.2,22.3,00.0,32.0,24.9,09.3,0000.0,0007.58,0003.64,0003.27
2022-02-14 15:50:00,,0827.1,5.00,0.00,23.2,22.3,00.0,32.0,24.9,09.2,0000.0,0007.58,0003.60,0003.24
2022-02-14 15:51:00,,0827.5,4.99,0.00,23.2,22.3,00.0,32.0,25.0,09.1,0000.0,0007.39,0003.58,0003.21
2022-02-14 15:52:00,,0827.7,5.01,0.00,23.2,22.3,00.0,32.0,25.0,09.1,0000.0,0007.30,0003.56,0003.20
2022-02-14 15:53:00,,0827.7,4.99,0.00,23.2,22.3,00.0,32.0,25.0,09.0,0000.0,0007.12,0003.51,0003.17
2022-02-14 15:54:00,,0827.5,5.00,0.00,23.2,22.3,00.0,32.1,25.0,09.2,0000.0,0006.69,0003.49,0003.17
2022-02-14 15:55:00,,0827.6,5.01,0.00,23.2,22.3,00.0,32.1,25.0,09.4,0000.0,0004.95,0003.44,0003.14
2022-02-14 15:56:00,,0827.6,4.99,0.00,23.2,22.3,00.0,32.1,25.0,09.7,0000.0,0004.83,0003.41,0003.12
2022-02-14 15:57:00,,0827.6,5.00,0.00,23.3,22.3,00.0,32.1,25.0,09.2,0000.0,0005.25,0003.41,0003.11
2022-02-14 15:58:00,,0827.5,5.00,0.00,23.3,22.3,00.0,32.1,25.0,08.8,0000.0,0006.19,0003.40,0003.10
2022-02-14 15:59:00,,0827.1,5.01,0.00,23.3,22.4,00.0,32.1,25.0,08.9,0000.0,0006.14,0003.39,0003.09
